Temperature
13 11 11 12 13 13 13 12 12 13 13 12 11 11 12 12 12 12 12 11 11 10 10 10 9 9 9 9 9 9 9 9 9 9 9 9 9 9 9 9 9 9 9 9
12 11 12 12 12 12 12 11 11 12 13 12 11 11 12 12 11 11 11 11 10 10 9 9 9 9 9 8 8 8 8 9 9 9 9 9 9 9 9 9 9 9 9 9
11 11 12 12 11 11 11 11 11 11 11 11 10 10 11 11 12 11 10 10 9 9 8 8 8 8 8 8 8 8 8 8 8 8 8 8 8 8 9 9 9 9 9 9
11 11 11 11 10 11 10 11 10 10 9 8 10 8 10 11 10 10 9 9 8 8 7 7 7 7 7 7 7 8 8 8 8 8 8 8 8 8 8 8 8 8 8 8
10 10 9 9 10 10 10 10 9 9 9 8 9 8 9 11 10 9 8 8 8 7 7 6 6 6 6 7 7 7 7 7 7 7 7 8 8 8 8 8 8 8 8 8
10 10 9 9 9 9 9 9 9 9 8 7 8 8 8 9 9 8 8 8 7 6 6 6 5 6 6 6 6 6 6 6 7 7 7 7 7 7 7 7 7 7 8 8
9 9 9 8 8 8 8 7 7 7 6 7 9 8 7 8 8 8 7 7 7 6 6 5 5 5 5 5 5 5 6 6 6 6 6 6 6 6 7 7 7 7 7 7
8 8 8 8 7 7 7 7 6 6 7 7 8 7 6 8 8 8 7 7 6 6 5 5 4 4 4 4 5 5 5 5 6 6 6 6 6 6 6 6 6 6 7 7
6 7 8 8 8 7 7 7 7 6 6 6 7 7 7 7 6 6 6 6 6 5 5 4 4 4 4 4 4 4 5 5 5 5 5 5 5 6 6 6 6 6 6 6
6 6 7 7 7 7 7 7 6 5 5 6 7 7 6 6 5 6 5 5 5 5 4 4 4 3 3 4 4 4 4 4 4 4 5 5 5 5 5 5 5 5 5 6
6 5 6 6 6 6 6 6 6 5 5 5 5 5 7 6 5 5 5 5 5 4 4 4 3 3 3 3 3 3 3 4 4 4 4 4 4 4 4 5 5 5 5 5
5 4 4 6 6 6 6 6 5 4 4 5 4 4 6 5 5 5 5 5 4 4 3 3 3 2 2 2 2 2 2 3 3 3 3 3 4 4 4 4 4 4 4 5
4 3 3 4 5 5 5 5 5 4 3 3 3 4 5 5 4 4 4 4 3 3 3 2 2 2 1 1 1 1 2 2 2 3 3 3 3 3 3 3 4 4 4 4
4 3 3 3 4 4 3 4 4 3 2 2 3 4 4 3 3 3 3 3 3 2 2 2 1 1 1 1 0 0 1 1 2 2 2 2 2 3 3 3 3 3 3 4
3 2 2 3 4 4 3 3 3 3 2 2 3 3 3 3 2 2 2 2 2 2 1 1 0 0 0 0 -0 -0 -0 0 1 1 1 2 2 2 2 2 2 2 3 3
2 1 1 1 3 3 3 3 3 3 2 2 2 2 2 2 2 2 2 1 1 1 0 -0 -0 -1 -1 -1 -1 -1 -1 -0 -0 0 1 1 1 1 1 1 2 2 2 2
1 1 0 1 2 2 1 1 2 1 1 1 1 1 1 1 1 1 1 0 0 -0 -0 -1 -1 -1 -1 -1 -1 -1 -1 -1 -1 -1 -0 0 0 1 1 1 1 1 1 1
0 0 -0 -0 1 -0 1 2 2 1 1 1 0 0 1 0 -0 -0 -0 -1 -1 -1 -2 -2 -2 -2 -2 -2 -2 -2 -2 -1 -1 -1 -1 -1 -0 -0 -0 0 0 0 1 1
1 -0 -1 -1 -0 0 1 1 1 0 -1 -0 -0 -0 -0 -1 -1 -1 -1 -2 -2 -3 -3 -2 -2 -2 -3 -3 -3 -3 -2 -2 -2 -2 -1 -1 -1 -1 -1 -1 -0 -0 -0 0
0 -0 -1 -1 -1 -0 -0 0 1 0 -2 -1 -1 -1 -1 -2 -3 -2 -2 -3 -3 -3 -3 -3 -3 -3 -3 -3 -3 -3 -3 -3 -2 -2 -2 -2 -1 -1 -1 -1 -1 -1 -1 -0
-1 -1 -2 -2 -1 -1 -1 -0 -0 -2 -2 -1 -2 -2 -2 -3 -3 -3 -4 -4 -4 -4 -4 -4 -4 -4 -4 -4 -4 -4 -4 -3 -3 -3 -2 -2 -2 -2 -2 -2 -1 -1 -1 -1
-1 -2 -2 -2 -2 -2 -1 -1 -2 -2 -2 -2 -2 -3 -3 -4 -4 -4 -4 -5 -5 -5 -5 -5 -4 -4 -4 -4 -4 -4 -4 -4 -3 -3 -3 -3 -2 -2 -2 -2 -2 -2 -2 -2
-1 -2 -2 -2 -2 -1 -1 -2 -2 -2 -3 -3 -3 -4 -4 -5 -5 -5 -5 -5 -5 -6 -5 -5 -5 -5 -5 -4 -4 -4 -4 -4 -4 -4 -4 -3 -3 -3 -3 -3 -3 -3 -3 -3
-1 -1 -2 -2 -2 -1 -2 -2 -3 -3 -4 -4 -4 -5 -5 -5 -6 -6 -6 -6 -6 -6 -6 -6 -6 -5 -5 -5 -5 -5 -5 -5 -5 -4 -4 -4 -4 -3 -3 -3 -3 -3 -3 -3
-2 -2 -3 -3 -3 -2 -3 -3 -4 -4 -5 -5 -5 -5 -6 -6 -6 -7 -7 -7 -7 -7 -7 -6 -6 -6 -6 -5 -5 -5 -5 -5 -5 -5 -5 -4 -4 -4 -4 -4 -4 -4 -4 -4
-3 -3 -4 -4 -3 -4 -4 -4 -4 -5 -5 -6 -6 -6 -6 -7 -7 -7 -7 -7 -7 -7 -7 -7 -6 -6 -6 -6 -6 -6 -6 -6 -6 -5 -5 -5 -5 -5 -5 -5 -5 -4 -4 -4
Wind_Speed
2 2 3 3 3 5 7 8 10 8 2 3 7 9 7 4 4 4 3 2 2 1 1 2 1 2 2 2 2 2 2 2 2 2 2 2 2 2 2 2 3 3 3 3
2 3 4 4 4 5 8 9 9 7 3 4 8 11 8 6 5 3 2 1 1 2 2 2 2 1 2 2 1 2 2 2 3 2 2 2 2 2 2 2 3 3 3 3
3 2 3 4 5 6 8 7 7 8 8 6 8 9 7 4 3 2 2 3 3 3 2 2 2 2 1 1 0 1 2 2 2 2 1 1 2 1 2 2 2 2 3 3
3 2 3 4 5 6 7 5 7 8 6 5 4 6 5 5 4 3 2 3 3 3 3 2 2 2 1 1 1 1 1 2 2 2 3 3 3 2 3 3 3 3 4 4
2 2 2 4 4 5 5 7 8 9 9 8 8 7 5 4 3 3 3 3 3 3 2 2 2 1 2 2 1 1 0 2 2 3 3 3 2 2 2 2 3 3 3 4
4 0 1 3 4 4 5 7 9 8 5 7 8 7 4 1 1 3 3 3 3 3 3 3 3 3 2 2 2 1 0 1 1 2 3 3 3 2 2 2 3 3 3 3
4 4 2 1 4 2 3 3 3 2 4 6 3 4 3 2 4 3 3 3 4 3 3 3 3 3 3 2 2 1 1 1 1 2 2 3 3 3 4 3 3 3 2 2
4 3 3 1 1 2 4 3 2 4 5 4 3 4 2 4 5 4 4 4 4 3 3 3 3 2 2 2 2 1 1 2 1 2 2 2 2 2 2 3 2 3 2 2
4 3 2 0 1 3 3 3 3 4 6 6 6 3 2 3 3 3 3 3 3 3 3 3 2 2 2 2 2 1 1 2 2 2 2 1 2 2 2 2 2 2 2 2
4 6 3 0 2 4 4 4 2 3 4 6 7 5 3 2 1 2 3 3 3 4 3 3 3 3 3 3 3 3 2 2 2 1 1 1 1 1 1 1 2 2 2 2
4 5 4 2 4 4 3 3 3 4 5 4 5 3 2 2 2 2 2 3 4 4 4 4 3 4 4 4 4 3 3 2 2 1 1 1 1 1 1 2 2 2 2 2
3 3 6 7 2 1 1 3 3 3 6 5 5 4 2 4 3 3 3 3 3 4 4 3 3 4 4 5 5 4 4 4 3 2 1 1 1 1 1 2 2 2 2 2
4 3 5 4 1 1 2 4 5 4 5 6 6 5 2 4 4 4 5 4 4 4 4 4 3 4 4 4 5 5 5 5 5 4 2 2 2 2 2 2 2 2 2 2
4 5 7 8 7 5 7 8 6 5 5 8 9 10 6 5 6 6 6 6 5 4 4 4 4 4 4 4 4 5 5 5 5 4 3 2 2 2 2 2 2 2 2 2
2 5 8 12 12 10 11 11 9 9 9 9 10 11 9 7 7 6 6 6 6 5 4 5 5 5 4 4 5 5 5 5 5 5 3 3 2 1 1 1 1 1 2 2
3 5 7 9 10 10 12 11 9 9 9 10 11 11 7 7 7 7 7 7 6 6 6 6 6 6 5 5 5 5 5 6 5 5 4 3 2 1 1 1 1 1 1 2
3 4 4 6 7 9 8 5 5 5 5 6 9 9 7 8 9 8 8 6 6 7 7 7 6 6 5 5 5 5 5 5 5 5 5 3 2 2 1 1 1 1 2 2
4 4 4 5 6 7 3 1 1 3 5 4 5 6 7 7 7 7 6 6 8 9 9 7 7 7 6 5 5 4 4 4 5 5 5 4 3 2 2 1 1 2 2 2
6 5 4 4 5 8 3 2 3 3 5 3 5 8 9 8 7 5 7 9 8 9 9 7 6 6 6 5 5 5 4 4 5 5 5 4 4 3 2 2 2 2 2 2
3 4 4 5 5 5 2 4 5 3 3 4 7 8 8 8 7 7 9 10 10 9 8 8 7 6 5 5 5 5 5 5 4 5 4 4 4 3 3 2 2 2 2 2
2 4 6 7 6 4 2 5 4 1 4 7 7 8 7 6 6 8 10 9 9 9 9 9 7 6 5 5 5 5 5 5 5 5 4 4 3 4 3 3 2 2 2 2
3 3 3 4 5 5 3 3 1 4 5 6 7 7 7 8 8 9 9 9 9 9 9 8 7 7 6 5 4 5 5 5 5 4 4 3 3 3 3 2 2 2 2 2
4 4 3 4 5 3 2 1 2 4 6 6 6 7 8 9 10 10 9 9 9 9 9 8 7 8 6 5 4 5 5 5 4 4 4 3 3 3 3 3 3 2 2 2
3 2 3 5 5 4 3 2 4 5 6 7 7 8 8 9 10 10 10 9 9 9 8 7 7 7 6 6 5 5 5 4 4 4 4 3 3 3 3 3 3 2 2 3
4 3 4 7 6 5 3 4 5 6 7 7 7 8 8 9 10 10 10 9 9 9 8 7 7 7 6 5 5 5 5 4 4 4 4 3 3 3 3 3 3 3 3 4
3 3 4 5 4 5 7 5 5 6 7 8 8 9 9 8 10 10 9 8 8 8 8 8 7 6 6 5 5 5 5 4 4 4 3 3 3 3 3 3 4 4 4 5
Wind_Direction
188 252 259 295 286 301 310 299 293 295 302 265 266 271 270 252 242 248 245 239 215 214 98 85 95 117 117 123 132 145 149 154 147 156 161 169 183 177 163 145 139 132 130 139
248 248 306 328 322 302 291 290 292 301 341 300 281 277 269 250 227 218 233 267 34 39 31 43 57 79 119 126 139 155 159 168 165 172 178 170 164 176 166 147 150 148 138 137
262 347 348 316 302 293 281 280 296 306 316 272 272 280 245 230 182 134 87 54 39 44 35 28 26 42 60 75 207 204 183 172 164 160 150 132 113 113 136 162 168 170 159 160
283 325 329 303 294 297 288 332 317 303 298 273 249 280 254 214 178 137 87 57 38 26 18 21 24 17 12 352 348 287 194 175 171 165 170 169 176 186 188 173 174 176 168 172
296 8 331 299 313 314 304 329 295 280 270 275 253 252 264 201 170 114 84 65 41 28 16 15 16 10 7 15 10 332 219 175 175 182 182 184 193 195 164 150 163 177 177 176
252 282 350 332 335 311 314 303 275 257 255 259 238 230 272 158 112 93 66 62 54 37 26 22 22 29 31 21 10 360 331 203 182 187 194 195 199 180 161 164 177 186 184 178
254 198 139 17 315 265 309 313 314 275 227 244 233 223 236 101 63 79 80 52 52 47 36 29 30 22 21 14 353 349 335 280 207 201 208 205 200 188 183 182 182 186 186 182
305 266 149 121 319 304 276 273 259 267 270 294 282 238 196 109 83 65 70 64 55 50 36 36 26 19 10 355 335 339 318 305 253 216 225 205 195 190 193 185 179 190 194 194
319 293 43 89 307 292 280 253 300 298 290 277 247 218 183 118 89 67 54 61 48 41 31 36 27 23 12 352 336 318 294 301 259 224 224 205 200 200 199 191 177 183 180 191
309 293 270 164 261 241 279 311 289 242 270 271 266 247 229 179 149 52 40 22 23 24 25 32 22 14 9 360 345 339 324 296 278 227 229 248 224 204 197 181 188 189 193 191
303 280 275 244 226 245 219 245 250 260 260 272 288 290 20 87 84 60 34 15 17 19 13 12 12 12 11 6 359 355 342 325 320 280 254 252 256 222 196 191 197 204 206 196
332 296 274 266 279 342 235 240 240 255 267 267 281 282 38 58 51 43 25 16 19 13 2 6 12 10 8 3 358 355 350 341 331 310 263 231 247 228 208 211 209 203 205 207
334 290 293 286 187 71 288 269 262 269 282 265 262 262 36 27 19 11 4 4 8 352 350 357 10 6 358 352 352 353 352 345 336 326 288 237 226 222 217 219 217 212 207 206
307 257 248 266 291 307 289 286 272 257 253 265 259 276 302 329 339 346 349 348 347 342 347 360 358 352 348 345 347 347 345 343 335 326 309 282 251 235 221 219 222 215 205 203
290 267 272 279 287 289 283 280 271 254 253 261 279 287 302 331 335 336 337 341 342 346 354 355 344 338 339 341 340 340 339 339 334 327 312 303 301 279 244 224 219 213 213 217
282 275 293 283 273 274 274 273 269 264 263 267 282 286 313 330 340 339 341 341 344 348 347 342 338 334 332 332 330 331 335 334 331 328 311 309 312 302 262 236 237 219 214 217
269 278 292 282 293 295 269 267 257 259 270 274 276 287 316 329 336 333 331 337 343 342 338 334 329 327 327 327 323 322 328 333 333 330 322 320 315 324 311 282 268 244 234 225
241 265 264 278 293 258 248 61 5 288 290 297 301 318 329 326 325 328 339 355 350 342 337 332 332 328 325 322 323 324 328 328 325 325 322 326 327 320 315 315 287 272 257 235
228 234 260 267 272 272 281 358 344 299 295 337 333 330 333 333 328 328 4 359 342 333 330 324 321 320 320 322 325 324 320 321 321 323 320 323 323 311 303 292 284 282 274 260
232 225 243 262 271 269 320 1 347 318 278 355 344 332 335 341 321 310 336 336 332 331 329 326 323 321 320 320 322 316 308 312 314 318 318 319 320 309 290 282 279 280 271 266
238 237 234 250 259 266 332 358 6 314 291 339 342 331 327 317 299 304 318 321 322 322 322 324 321 318 315 316 319 312 309 307 311 316 317 314 311 304 290 286 282 272 267 261
243 251 241 246 249 259 14 23 354 295 323 332 332 327 321 313 310 313 316 317 318 319 321 323 320 315 315 313 309 304 306 311 313 314 314 310 308 306 300 289 281 268 251 247
215 216 244 236 247 294 2 338 316 331 323 325 326 323 319 313 311 312 313 314 313 314 316 317 315 313 317 320 314 307 308 314 315 315 313 308 311 307 297 283 272 265 249 240
248 240 258 269 266 286 302 317 340 339 322 317 316 315 314 308 308 310 312 311 310 311 311 314 313 311 313 319 319 311 308 310 314 311 312 309 309 307 303 292 278 264 245 242
275 280 264 263 278 303 285 315 321 321 321 319 320 319 315 310 308 308 308 307 309 311 311 310 306 305 308 312 314 314 315 315 311 306 305 304 305 298 297 298 287 277 265 248
242 247 257 269 302 293 299 317 324 319 317 319 320 317 316 313 308 308 307 308 309 308 309 308 306 307 309 312 312 314 315 312 308 304 302 301 303 301 301 304 311 306 290 289
Height
1503 1506 1506 1503 1501 1501 1501 1501 1500 1495 1492 1494 1494 1492 1489 1488 1488 1488 1488 1489 1489 1490 1491 1491 1492 1492 1493 1493 1494 1494 1495 1496 1498 1499 1501 1502 1504 1506 1507 1508 1509 1511 1512 1514
1504 1506 1504 1502 1501 1502 1502 1502 1500 1495 1492 1494 1494 1490 1486 1484 1484 1485 1486 1487 1488 1489 1489 1489 1489 1490 1490 1490 1491 1492 1493 1494 1495 1497 1498 1500 1502 1503 1504 1506 1507 1508 1510 1511
1505 1505 1503 1502 1502 1503 1502 1503 1501 1500 1496 1493 1495 1490 1483 1480 1481 1483 1485 1486 1487 1487 1487 1487 1487 1487 1488 1488 1489 1489 1490 1491 1493 1494 1496 1498 1499 1500 1502 1503 1504 1506 1507 1508
1504 1504 1504 1504 1504 1503 1504 1501 1500 1500 1503 1502 1494 1501 1483 1479 1480 1482 1484 1485 1486 1487 1487 1486 1486 1485 1486 1486 1487 1487 1488 1489 1490 1491 1493 1494 1495 1497 1498 1500 1501 1503 1504 1505
1505 1504 1505 1506 1505 1505 1503 1501 1501 1499 1500 1501 1494 1497 1485 1476 1480 1483 1484 1485 1486 1486 1486 1486 1485 1484 1484 1484 1485 1485 1486 1487 1488 1489 1490 1491 1493 1494 1496 1497 1499 1500 1501 1502
1505 1505 1506 1506 1506 1505 1504 1503 1499 1497 1500 1505 1491 1493 1486 1481 1481 1482 1484 1484 1485 1485 1485 1485 1484 1484 1483 1482 1483 1483 1483 1484 1485 1486 1487 1488 1489 1491 1492 1494 1495 1497 1498 1499
1504 1504 1505 1507 1507 1506 1506 1509 1510 1506 1506 1498 1483 1486 1488 1481 1480 1481 1483 1484 1485 1485 1485 1484 1483 1482 1481 1480 1480 1480 1480 1481 1482 1483 1484 1485 1486 1488 1489 1490 1492 1493 1494 1496
1510 1509 1506 1507 1508 1510 1508 1508 1515 1515 1505 1494 1486 1487 1487 1481 1481 1482 1483 1484 1485 1485 1484 1483 1482 1481 1480 1479 1478 1478 1478 1478 1479 1480 1481 1482 1483 1484 1486 1487 1488 1490 1491 1492
1515 1510 1507 1506 1507 1508 1507 1507 1505 1511 1505 1502 1490 1485 1484 1481 1482 1483 1483 1484 1484 1484 1484 1483 1482 1481 1480 1478 1477 1476 1476 1476 1476 1477 1478 1479 1480 1481 1482 1484 1485 1486 1487 1489
1516 1516 1508 1507 1508 1507 1507 1506 1509 1512 1511 1502 1485 1483 1487 1483 1483 1483 1484 1484 1484 1484 1483 1482 1481 1480 1479 1477 1476 1475 1474 1474 1474 1474 1475 1476 1477 1478 1479 1480 1481 1483 1484 1485
1517 1518 1512 1509 1507 1506 1508 1508 1507 1507 1505 1505 1498 1493 1481 1482 1482 1483 1484 1484 1484 1483 1482 1481 1480 1479 1478 1476 1475 1473 1472 1471 1471 1472 1472 1473 1474 1475 1476 1477 1478 1479 1480 1482
1518 1518 1516 1507 1502 1501 1503 1504 1507 1513 1508 1502 1503 1499 1484 1483 1483 1484 1484 1484 1484 1483 1482 1480 1479 1478 1476 1475 1473 1471 1470 1469 1469 1469 1469 1470 1470 1471 1472 1473 1474 1475 1476 1478
1521 1521 1519 1508 1508 1506 1505 1504 1504 1506 1508 1506 1505 1498 1486 1485 1485 1485 1484 1483 1482 1482 1480 1479 1478 1476 1474 1473 1471 1470 1468 1467 1466 1466 1466 1466 1467 1468 1468 1469 1471 1472 1473 1474
1521 1521 1521 1516 1508 1507 1507 1505 1503 1506 1510 1504 1498 1492 1489 1488 1487 1486 1485 1483 1482 1480 1479 1478 1476 1474 1473 1471 1470 1468 1466 1465 1464 1463 1463 1463 1463 1464 1465 1466 1467 1467 1468 1469
1521 1520 1515 1510 1506 1505 1504 1502 1501 1502 1501 1501 1494 1492 1490 1489 1488 1487 1485 1482 1480 1479 1477 1476 1475 1473 1471 1469 1467 1466 1464 1462 1461 1460 1460 1460 1460 1461 1461 1462 1463 1463 1464 1465
1520 1519 1515 1512 1504 1502 1500 1498 1498 1497 1497 1496 1493 1491 1490 1489 1487 1486 1484 1481 1479 1477 1476 1474 1473 1471 1469 1466 1465 1463 1461 1460 1459 1458 1458 1457 1457 1457 1458 1458 1459 1459 1460 1461
1520 1519 1518 1512 1503 1501 1499 1496 1495 1495 1494 1495 1494 1492 1489 1487 1486 1485 1483 1480 1478 1476 1475 1472 1470 1468 1466 1464 1463 1461 1459 1458 1456 1455 1455 1454 1454 1454 1454 1455 1455 1455 1456 1457
1518 1518 1518 1513 1508 1508 1499 1493 1492 1493 1492 1492 1491 1490 1488 1487 1485 1484 1482 1479 1477 1475 1473 1470 1468 1466 1464 1462 1460 1458 1457 1455 1454 1453 1452 1451 1451 1450 1450 1451 1451 1452 1452 1453
1513 1516 1517 1514 1510 1499 1496 1494 1493 1493 1493 1491 1490 1489 1487 1485 1482 1480 1479 1478 1476 1474 1471 1468 1466 1463 1461 1459 1457 1455 1453 1452 1451 1450 1449 1449 1448 1447 1447 1447 1447 1448 1448 1449
1512 1513 1517 1513 1510 1502 1499 1495 1492 1492 1494 1491 1489 1488 1486 1484 1484 1480 1477 1475 1473 1470 1468 1465 1462 1460 1457 1455 1453 1451 1449 1448 1447 1446 1446 1445 1445 1444 1444 1443 1443 1444 1444 1445
1513 1513 1514 1512 1509 1501 1498 1495 1493 1499 1497 1491 1489 1488 1486 1484 1484 1480 1476 1473 1470 1467 1464 1461 1459 1456 1454 1452 1450 1448 1446 1445 1444 1443 1442 1442 1441 1441 1440 1440 1440 1440 1440 1441
1510 1511 1509 1508 1507 1504 1496 1495 1498 1497 1493 1490 1488 1487 1484 1481 1479 1476 1473 1470 1466 1463 1460 1457 1455 1452 1450 1448 1447 1445 1443 1442 1441 1439 1439 1438 1438 1437 1437 1437 1436 1436 1437 1437
1506 1506 1505 1505 1503 1497 1495 1495 1495 1493 1491 1489 1487 1484 1482 1478 1475 1473 1469 1466 1462 1459 1456 1454 1451 1448 1446 1445 1444 1442 1440 1439 1437 1436 1435 1434 1434 1433 1433 1433 1433 1433 1433 1433
1502 1501 1501 1500 1496 1495 1494 1493 1492 1491 1489 1486 1484 1482 1479 1475 1472 1469 1465 1462 1458 1455 1452 1450 1447 1445 1443 1441 1440 1439 1437 1436 1434 1432 1431 1431 1430 1429 1430 1430 1429 1429 1429 1429
1501 1500 1500 1497 1494 1493 1491 1491 1490 1487 1485 1483 1481 1478 1475 1472 1468 1465 1461 1458 1455 1451 1448 1446 1443 1441 1439 1438 1436 1435 1434 1432 1430 1429 1428 1427 1427 1426 1425 1425 1426 1426 1426 1426
1498 1499 1499 1496 1494 1493 1490 1488 1487 1484 1482 1480 1477 1474 1471 1468 1465 1461 1457 1454 1451 1447 1444 1442 1439 1438 1436 1434 1433 1432 1430 1429 1427 1426 1425 1424 1423 1423 1422 1422 1421 1421 1422 1422